N76SAM VECC-VGHS

Flight info

Callsign N76SAM
Flight time 0h 27m
Altitude 17000
Route BEMAK2E BEMAK A462 IKOGU IKOGU1B
Aircraft A20N/M-SDE2E3FGHIRWXY/LB1

Departure

Time 2026-05-08 04:49
Airport Netaji Subhash Chandra Bose International Airport (VECC)

Arrival

Time 2026-05-08 05:17
Airport Hazrat Shahjalal International Airport (VGHS)
Time Latitude Longitude Altitude Speed Heading
2026-05-08 04:48 22.64448 88.44657 27 ft 0 kts
2026-05-08 04:48 22.64501 88.44663 26 ft 37 kts
2026-05-08 04:49 22.65077 88.44729 29 ft 127 kts
2026-05-08 04:49 22.66189 88.44858 382 ft 178 kts
2026-05-08 04:49 22.67403 88.44999 1534 ft 173 kts
2026-05-08 04:49 22.68669 88.45151 2412 ft 197 kts
2026-05-08 04:50 22.70097 88.45407 3311 ft 218 kts 25°
2026-05-08 04:50 22.71216 88.46519 4226 ft 238 kts 65°
2026-05-08 04:50 22.71790 88.48376 4667 ft 281 kts 76°
2026-05-08 04:50 22.72232 88.50431 4886 ft 278 kts 79°
2026-05-08 04:51 22.72610 88.52482 5436 ft 279 kts 80°
2026-05-08 04:51 22.72959 88.54555 6248 ft 281 kts 80°
2026-05-08 04:51 22.73302 88.56673 6714 ft 290 kts 80°
2026-05-08 04:51 22.73651 88.58814 6833 ft 288 kts 79°
2026-05-08 04:52 22.74013 88.60948 6888 ft 289 kts 79°
2026-05-08 04:52 22.74386 88.63085 6913 ft 288 kts 78°
2026-05-08 04:52 22.74769 88.65211 6920 ft 288 kts 78°
2026-05-08 04:52 22.75194 88.67337 6945 ft 289 kts 70°
2026-05-08 04:53 22.76062 88.69330 7007 ft 300 kts 59°
2026-05-08 04:53 22.77239 88.71302 7096 ft 323 kts 54°
2026-05-08 04:53 22.78632 88.73308 7517 ft 343 kts 50°
2026-05-08 04:53 22.80185 88.75350 8310 ft 359 kts 48°
2026-05-08 04:54 22.81837 88.77403 9318 ft 372 kts 46°
2026-05-08 04:54 22.83601 88.79515 10305 ft 384 kts 45°
2026-05-08 04:54 22.85451 88.81664 11260 ft 394 kts 44°
2026-05-08 04:54 22.87351 88.83828 11962 ft 399 kts 44°
2026-05-08 04:55 22.89311 88.86037 12144 ft 414 kts 44°
2026-05-08 04:55 22.91251 88.88425 12685 ft 429 kts 50°
2026-05-08 04:55 22.93072 88.91039 13597 ft 437 kts 52°
2026-05-08 04:55 22.94849 88.93750 14426 ft 445 kts 54°
2026-05-08 04:56 22.96625 88.96545 15191 ft 454 kts 54°
2026-05-08 04:56 22.98411 88.99412 15956 ft 463 kts 55°
2026-05-08 04:56 22.99604 89.01350 16438 ft 468 kts 55°
2026-05-08 04:56 23.01423 89.04320 17166 ft 474 kts 55°
2026-05-08 04:57 23.03235 89.07295 17397 ft 476 kts 55°
2026-05-08 04:57 23.05072 89.10324 17474 ft 484 kts 56°
2026-05-08 04:57 23.06926 89.13387 17492 ft 484 kts 56°
2026-05-08 04:57 23.08766 89.16433 17258 ft 482 kts 56°
2026-05-08 04:58 23.10602 89.19476 17092 ft 481 kts 56°
2026-05-08 04:58 23.12426 89.22503 16998 ft 477 kts 56°
2026-05-08 04:58 23.14243 89.25520 16968 ft 477 kts 56°
2026-05-08 04:58 23.16061 89.28539 16952 ft 478 kts 56°
2026-05-08 04:59 23.17884 89.31569 16940 ft 478 kts 56°
2026-05-08 04:59 23.19701 89.34592 16939 ft 477 kts 56°
2026-05-08 04:59 23.21517 89.37616 16934 ft 478 kts 56°
2026-05-08 04:59 23.23339 89.40650 16933 ft 479 kts 56°
2026-05-08 05:00 23.25159 89.43682 16931 ft 479 kts 56°
2026-05-08 05:00 23.26976 89.46713 16930 ft 478 kts 56°
2026-05-08 05:00 23.28794 89.49748 16930 ft 478 kts 56°
2026-05-08 05:00 23.30585 89.52740 16937 ft 479 kts 56°
2026-05-08 05:01 23.32406 89.55781 16932 ft 479 kts 56°
2026-05-08 05:01 23.34226 89.58824 16932 ft 479 kts 56°
2026-05-08 05:01 23.36074 89.61846 16935 ft 478 kts 52°
2026-05-08 05:01 23.38267 89.64560 16935 ft 477 kts 44°
2026-05-08 05:02 23.40631 89.67059 16940 ft 469 kts 41°
2026-05-08 05:02 23.43011 89.69403 16806 ft 453 kts 39°
2026-05-08 05:02 23.45370 89.71632 15925 ft 445 kts 38°
2026-05-08 05:02 23.47721 89.73787 14906 ft 436 kts 38°
2026-05-08 05:03 23.50089 89.75700 13888 ft 425 kts 27°
2026-05-08 05:03 23.52754 89.76999 12812 ft 413 kts 19°
2026-05-08 05:03 23.55428 89.78032 11755 ft 403 kts 16°
2026-05-08 05:03 23.58069 89.78936 10754 ft 393 kts 14°
2026-05-08 05:04 23.60677 89.79760 9888 ft 393 kts 13°
2026-05-08 05:04 23.63276 89.80534 9713 ft 384 kts 12°
2026-05-08 05:04 23.65865 89.81273 9550 ft 385 kts 12°
2026-05-08 05:04 23.68450 89.81994 9382 ft 383 kts 12°
2026-05-08 05:05 23.71041 89.82701 9225 ft 384 kts 12°
2026-05-08 05:05 23.73560 89.83663 9076 ft 385 kts 23°
2026-05-08 05:05 23.75911 89.85078 8998 ft 387 kts 29°
2026-05-08 05:05 23.78089 89.86821 8970 ft 391 kts 44°
2026-05-08 05:06 23.79637 89.89274 8961 ft 394 kts 59°
2026-05-08 05:06 23.80897 89.91936 8912 ft 393 kts 62°
2026-05-08 05:06 23.82077 89.94589 8822 ft 379 kts 63°
2026-05-08 05:06 23.83179 89.97102 8815 ft 354 kts 63°
2026-05-08 05:07 23.84209 89.99442 8736 ft 329 kts 62°
2026-05-08 05:07 23.85155 90.01573 8522 ft 304 kts 62°
2026-05-08 05:07 23.86060 90.03565 8299 ft 283 kts 62°
2026-05-08 05:07 23.86925 90.05418 8076 ft 265 kts 61°
2026-05-08 05:08 23.87753 90.07152 7847 ft 250 kts 60°
2026-05-08 05:08 23.88548 90.08786 7621 ft 237 kts 60°
2026-05-08 05:08 23.89314 90.10330 7251 ft 225 kts 60°
2026-05-08 05:08 23.90068 90.11816 6659 ft 223 kts 60°
2026-05-08 05:09 23.90824 90.13286 6072 ft 221 kts 60°
2026-05-08 05:09 23.91573 90.14735 5494 ft 217 kts 60°
2026-05-08 05:09 23.92305 90.16150 4841 ft 212 kts 61°
2026-05-08 05:09 23.93026 90.17540 4158 ft 211 kts 61°
2026-05-08 05:10 23.93741 90.18922 3966 ft 208 kts 62°
2026-05-08 05:10 23.95169 90.21700 3632 ft 206 kts 62°
2026-05-08 05:10 23.95846 90.23013 3533 ft 188 kts 62°
2026-05-08 05:11 23.96479 90.24237 3492 ft 184 kts 62°
2026-05-08 05:11 23.97098 90.25443 3468 ft 184 kts 62°
2026-05-08 05:11 23.97609 90.26709 3461 ft 181 kts 86°
2026-05-08 05:11 23.97352 90.28057 3262 ft 187 kts 117°
2026-05-08 05:12 23.96626 90.29226 2854 ft 184 kts 130°
2026-05-08 05:12 23.95780 90.30242 2547 ft 177 kts 135°
2026-05-08 05:12 23.94932 90.31136 2278 ft 166 kts 137°
2026-05-08 05:12 23.94048 90.31986 2043 ft 171 kts 140°
2026-05-08 05:13 23.93432 90.32518 1890 ft 170 kts 142°
2026-05-08 05:13 23.91253 90.34266 1380 ft 161 kts 144°
2026-05-08 05:13 23.90347 90.34984 1172 ft 161 kts 143°
2026-05-08 05:14 23.89735 90.35475 1041 ft 160 kts 143°
2026-05-08 05:15 23.89599 90.35583 1011 ft 160 kts 143°
2026-05-08 05:15 23.88700 90.36303 820 ft 161 kts 143°
2026-05-08 05:15 23.87794 90.37031 616 ft 162 kts 144°
2026-05-08 05:16 23.86881 90.37761 403 ft 163 kts 144°
2026-05-08 05:16 23.85925 90.38524 209 ft 176 kts 143°
2026-05-08 05:16 23.85004 90.39253 50 ft 144 kts 145°
2026-05-08 05:16 23.84366 90.39756 35 ft 69 kts 144°
2026-05-08 05:17 23.84014 90.40030 37 ft 56 kts 144°
2026-05-08 05:17 23.83814 90.40218 39 ft 31 kts 126°
2026-05-08 05:17 23.83724 90.40410 35 ft 27 kts 112°
2026-05-08 05:17 23.83715 90.40590 36 ft 22 kts 72°
2026-05-08 05:18 23.83794 90.40737 36 ft 23 kts 54°
2026-05-08 05:18 23.83795 90.40868 36 ft 19 kts 135°
2026-05-08 05:18 23.83710 90.40960 34 ft 16 kts 104°
2026-05-08 05:18 23.83761 90.41073 36 ft 19 kts 54°
2026-05-08 05:19 23.83829 90.41176 36 ft 15 kts 54°
2026-05-08 05:19 23.83863 90.41228 36 ft 0 kts 54°